When you browse on this site, cookies collect data to enhance your experience and personalize the content and advertising you see.
Visit our Privacy Policy to learn more. By continuing to use the site, you agree to this use of cookies and data.
  • In United Kingdom
  • List of Countries
  • For 7 days
  • Water Temperature
  • Weather Map
  • Weather Widgets
  • user-avatar
    Login

    Hourly Weather Anand

    Today, 3 April, Friday

    Time Temperature Precipitation Wind Pressure Humidity
    00:00 +30°C° 0 mm 2 mps 754 mmHg 21%
    01:00 +30°C° 0 mm 2 mps 753 mmHg 24%
    02:00 +29°C° 0 mm 3 mps 753 mmHg 27%
    03:00 +29°C° 0 mm 3 mps 753 mmHg 25%
    04:00 +28°C° 0 mm 3 mps 753 mmHg 23%
    05:00 +28°C° 0 mm 3 mps 754 mmHg 22%
    06:00 +29°C° 0 mm 4 mps 754 mmHg 20%
    07:00 +32°C° 0 mm 4 mps 755 mmHg 18%
    08:00 +33°C° 0 mm 5 mps 755 mmHg 16%
    09:00 +36°C° 0 mm 5 mps 755 mmHg 14%
    10:00 +39°C° 0 mm 5 mps 755 mmHg 12%
    11:00 +42°C° 0 mm 5 mps 755 mmHg 10%
    12:00 +43°C° 0 mm 4 mps 754 mmHg 9%
    13:00 +43°C° 0 mm 3 mps 753 mmHg 9%
    14:00 +43°C° 0 mm 2 mps 752 mmHg 8%
    15:00 +43°C° 0 mm 2 mps 752 mmHg 8%
    16:00 +43°C° 0 mm 2 mps 751 mmHg 8%
    17:00 +43°C° 0 mm 2 mps 751 mmHg 7%
    18:00 +40°C° 0 mm 2 mps 752 mmHg 9%
    19:00 +37°C° 0 mm 2 mps 752 mmHg 11%
    20:00 +35°C° 0 mm 2 mps 753 mmHg 12%
    21:00 +34°C° 0 mm 2 mps 753 mmHg 14%
    22:00 +32°C° 0 mm 2 mps 753 mmHg 16%
    23:00 +31°C° 0 mm 2 mps 754 mmHg 18%

    Tomorrow, 4 April, Saturday

    Time Temperature Precipitation Wind Pressure Humidity
    00:00 +31°C° 0 mm 2 mps 753 mmHg 19%
    01:00 +30°C° 0 mm 2 mps 753 mmHg 21%
    02:00 +30°C° 0 mm 2 mps 753 mmHg 23%
    03:00 +29°C° 0 mm 2 mps 753 mmHg 21%
    04:00 +28°C° 0 mm 2 mps 753 mmHg 20%
    05:00 +28°C° 0 mm 3 mps 753 mmHg 19%
    06:00 +30°C° 0 mm 3 mps 754 mmHg 18%
    07:00 +32°C° 0 mm 4 mps 754 mmHg 16%
    08:00 +34°C° 0 mm 5 mps 755 mmHg 15%
    09:00 +37°C° 0 mm 5 mps 755 mmHg 13%
    10:00 +40°C° 0 mm 5 mps 755 mmHg 10%
    11:00 +43°C° 0 mm 5 mps 755 mmHg 8%
    12:00 +44°C° 0 mm 4 mps 754 mmHg 8%
    13:00 +44°C° 0 mm 3 mps 753 mmHg 7%
    14:00 +45°C° 0 mm 2 mps 752 mmHg 7%
    15:00 +45°C° 0 mm 2 mps 752 mmHg 7%
    16:00 +45°C° 0 mm 2 mps 751 mmHg 7%
    17:00 +43°C° 0 mm 2 mps 750 mmHg 7%
    18:00 +41°C° 0 mm 2 mps 751 mmHg 9%
    19:00 +38°C° 0 mm 2 mps 752 mmHg 11%
    20:00 +35°C° 0 mm 2 mps 753 mmHg 13%
    21:00 +34°C° 0 mm 2 mps 753 mmHg 16%
    22:00 +32°C° 0 mm 2 mps 753 mmHg 19%
    23:00 +31°C° 0 mm 2 mps 753 mmHg 22%

    Day after tomorrow, 5 April, Sunday

    Time Temperature Precipitation Wind Pressure Humidity
    00:00 +31°C° 0 mm 2 mps 753 mmHg 23%
    01:00 +30°C° 0 mm 2 mps 753 mmHg 24%
    02:00 +29°C° 0 mm 2 mps 753 mmHg 25%
    03:00 +29°C° 0 mm 1 mps 753 mmHg 26%
    04:00 +28°C° 0 mm 1 mps 753 mmHg 27%
    05:00 +27°C° 0 mm 1 mps 753 mmHg 29%
    06:00 +29°C° 0 mm 1 mps 754 mmHg 26%
    07:00 +30°C° 0 mm 1 mps 754 mmHg 23%
    08:00 +32°C° 0 mm 1 mps 755 mmHg 20%
    09:00 +35°C° 0 mm 2 mps 755 mmHg 17%
    10:00 +38°C° 0 mm 2 mps 754 mmHg 15%
    11:00 +40°C° 0 mm 2 mps 754 mmHg 12%
    12:00 +42°C° 0 mm 2 mps 753 mmHg 11%
    13:00 +43°C° 0 mm 2 mps 753 mmHg 9%
    14:00 +45°C° 0 mm 2 mps 752 mmHg 7%
    15:00 +45°C° 0 mm 2 mps 751 mmHg 7%
    16:00 +45°C° 0 mm 3 mps 751 mmHg 7%
    17:00 +45°C° 0 mm 4 mps 751 mmHg 6%
    18:00 +42°C° 0 mm 4 mps 751 mmHg 9%
    19:00 +38°C° 0 mm 3 mps 752 mmHg 12%
    20:00 +35°C° 0 mm 3 mps 753 mmHg 14%
    21:00 +34°C° 0 mm 3 mps 753 mmHg 20%
    22:00 +33°C° 0 mm 3 mps 753 mmHg 27%
    23:00 +31°C° 0 mm 3 mps 753 mmHg 33%

    6 April, Monday

    Time Temperature Precipitation Wind Pressure Humidity
    00:00 +30°C° 0 mm 3 mps 753 mmHg 37%
    01:00 +29°C° 0 mm 2 mps 753 mmHg 41%
    02:00 +28°C° 0 mm 2 mps 753 mmHg 46%
    03:00 +28°C° 0 mm 2 mps 753 mmHg 48%
    04:00 +27°C° 0 mm 2 mps 753 mmHg 49%
    05:00 +27°C° 0 mm 1 mps 753 mmHg 51%
    06:00 +28°C° 0 mm 2 mps 754 mmHg 47%
    07:00 +30°C° 0 mm 2 mps 754 mmHg 42%
    08:00 +31°C° 0 mm 3 mps 755 mmHg 37%
    09:00 +35°C° 0 mm 3 mps 755 mmHg 31%
    10:00 +38°C° 0 mm 3 mps 754 mmHg 25%
    11:00 +41°C° 0 mm 4 mps 754 mmHg 18%
    12:00 +42°C° 0 mm 4 mps 753 mmHg 16%
    13:00 +44°C° 0 mm 4 mps 753 mmHg 13%
    14:00 +45°C° 0 mm 4 mps 752 mmHg 10%
    15:00 +44°C° 0 mm 4 mps 751 mmHg 10%
    16:00 +44°C° 0 mm 4 mps 751 mmHg 10%
    17:00 +45°C° 0 mm 5 mps 750 mmHg 9%
    18:00 +41°C° 0 mm 5 mps 751 mmHg 15%
    19:00 +37°C° 0 mm 4 mps 751 mmHg 20%
    20:00 +34°C° 0 mm 4 mps 752 mmHg 25%
    21:00 +33°C° 0 mm 4 mps 752 mmHg 30%
    22:00 +32°C° 0 mm 4 mps 753 mmHg 35%
    23:00 +32°C° 0 mm 4 mps 753 mmHg 39%

    7 April, Tuesday

    Time Temperature Precipitation Wind Pressure Humidity
    00:00 +30°C° 0 mm 3 mps 753 mmHg 41%
    01:00 +29°C° 0 mm 3 mps 753 mmHg 43%
    02:00 +28°C° 0 mm 2 mps 752 mmHg 45%
    03:00 +28°C° 0 mm 2 mps 752 mmHg 45%
    04:00 +27°C° 0 mm 2 mps 752 mmHg 45%
    05:00 +27°C° 0 mm 2 mps 753 mmHg 45%
    06:00 +28°C° 0 mm 2 mps 753 mmHg 43%
    07:00 +29°C° 0 mm 3 mps 754 mmHg 41%
    08:00 +31°C° 0 mm 3 mps 754 mmHg 39%
    09:00 +34°C° 0 mm 3 mps 754 mmHg 32%
    10:00 +36°C° 0 mm 3 mps 754 mmHg 26%
    11:00 +40°C° 0 mm 4 mps 754 mmHg 20%
    12:00 +41°C° 0 mm 4 mps 753 mmHg 17%
    13:00 +42°C° 0 mm 5 mps 752 mmHg 14%
    14:00 +43°C° 0 mm 5 mps 751 mmHg 11%
    15:00 +44°C° 0 mm 6 mps 751 mmHg 11%
    16:00 +44°C° 0 mm 6 mps 751 mmHg 11%
    17:00 +44°C° 0 mm 7 mps 750 mmHg 11%
    18:00 +39°C° 0 mm 6 mps 751 mmHg 18%
    19:00 +35°C° 0 mm 5 mps 751 mmHg 26%
    20:00 +32°C° 0 mm 4 mps 752 mmHg 34%
    21:00 +32°C° 0 mm 4 mps 752 mmHg 38%
    22:00 +30°C° 0 mm 4 mps 753 mmHg 42%
    23:00 +29°C° 0 mm 3 mps 753 mmHg 46%

    8 April, Wednesday

    Time Temperature Precipitation Wind Pressure Humidity
    00:00 +29°C° 0 mm 4 mps 753 mmHg 41%
    01:00 +28°C° 0 mm 4 mps 753 mmHg 37%
    02:00 +27°C° 0 mm 4 mps 752 mmHg 33%
    03:00 +27°C° 0 mm 3 mps 753 mmHg 40%
    04:00 +26°C° 0 mm 3 mps 753 mmHg 47%
    05:00 +25°C° 0 mm 2 mps 753 mmHg 54%
    06:00 +26°C° 0 mm 2 mps 753 mmHg 51%
    07:00 +27°C° 0 mm 2 mps 754 mmHg 49%
    08:00 +29°C° 0 mm 2 mps 755 mmHg 47%
    09:00 +31°C° 0 mm 2 mps 754 mmHg 39%
    10:00 +35°C° 0 mm 3 mps 754 mmHg 31%
    11:00 +37°C° 0 mm 3 mps 754 mmHg 23%
    12:00 +39°C° 0 mm 3 mps 753 mmHg 19%
    13:00 +41°C° 0 mm 4 mps 753 mmHg 15%
    14:00 +43°C° 0 mm 4 mps 752 mmHg 11%
    15:00 +43°C° 0 mm 5 mps 751 mmHg 11%
    16:00 +42°C° 0 mm 5 mps 751 mmHg 10%
    17:00 +42°C° 0 mm 5 mps 750 mmHg 9%
    18:00 +39°C° 0 mm 5 mps 751 mmHg 19%
    19:00 +34°C° 0 mm 5 mps 752 mmHg 29%
    20:00 +30°C° 0 mm 5 mps 752 mmHg 38%
    21:00 +29°C° 0 mm 5 mps 752 mmHg 40%
    22:00 +29°C° 0 mm 4 mps 753 mmHg 43%
    23:00 +28°C° 0 mm 4 mps 753 mmHg 45%
    Show more